NOAA 17 DEB, 48748

Orbit data source: Space-Track

NOAA 17 DEB, 48748 is space debris in SSO originally from a launch on Mon, 24 Jun 2002 UTC launched from the Air Force Western Test Range (AFWTR). Debris objects in space refer to the collection of defunct objects orbiting the Earth. Examples of debris include non-operational satellites, rocket bodies, and fragments generated from explosions, collisions, or faulty payload assembly.

Loading next visibility...
Identifier
48748, 2002-032CH
Orbit
SSO
Country
Flag of USUS
Related business
Manufacturer
Unknown
Mission
Spacecraft
Bus & Motor
Unknown
Mass
Unknown
Launch date (UTC)
2002-06-24 (23 years ago)
Launch vehicle
Unknown
Launch site
Air Force Western Test Range (AFWTR)
Object type
Payload
Rocket body
Debris
Shape & HBR
Unknown shape, 0.1 m
Radar Cross Section
Small (<0.1 m²)

Expand to show TLE details & history
Last TLE update: 2 days ago

TLE from 2 days ago
0 NOAA 17 DEB
1 48748U 02032CH  25347.65709208  .00010070  00000-0  27393-2 0  9990
2 48748  98.7507 316.0962 0024971  86.6283 273.7765 14.47488526246314
Epoch: 2025-12-13T15:46Z
TLE epoch observation values (Epoch: 2025-12-13T15:46:12.755Z)
Latitude
0.00002°
Longitude
-3.03817°
Altitude
735.688 km
Speed
7.488 km/s
True Right ascension
21h 04m 23s
True Declination
0° 00' 00"
Sunlit
Object was in daylight at epoch
Visualization orbit readout
Latitude
Unknown
Longitude
Unknown
Altitude
Unknown
Speed
Unknown
Apparent Right ascension
Unknown
Apparent Declination
Unknown
Sunlit
N/A
Visualization observer readout
Local Sidereal Time
17:04:17
Azimuth
Unknown
Elevation
Unknown
Doppler factor
Unknown
Orbital elements
Apogee altitude
748.739 km
Perigee altitude
713.235 km
Semi-major axis
7,109.124 km
Eccentricity
0.0025
Inclination
98.7507°
RAAN
316.0962°
Arg. of periapsis
86.6283°
True anomaly
273.49092°
Mean anomaly
273.7765°
Eccentric anomaly
273.63371°
Mean motion
3.62092 °/min
Orbital period
99.42 mins
BSTAR
0.0027393
Loading maneuver chart data...
Computing Atmospheric mass density...
Loading historical data...
Loading historical data...
Loading historical data...
Loading historical data...
Loading historical data...
Loading historical data...
Loading historical data...

Documentation

Showing up to 5 results
|